Location: Unspecified
(34.3419°N, 0.0000°E)
Time: 21:22:14
(UTC+00:00)

Oscar 11 - Visible Passes

Search period start: 04 April 2026 00:00
Search period end: 14 April 2026 00:00
Orbit: 590 x 603 km, 97.8° (Epoch: 29 March)

Date Brightness Start Highest point End Pass type
(mag) Time Alt. Az. Time Alt. Az. Time Alt. Az.
4 Apr 7.9 03:22:08 10° NNE 03:25:08 45° NNE 03:25:08 45° NNE visible
5 Apr 7.5 03:31:59 10° N 03:35:15 54° N 03:35:15 54° N visible
6 Apr 7.3 03:41:52 10° N 03:45:22 54° NNW 03:45:22 54° NNW visible
7 Apr 7.4 03:51:50 10° N 03:55:29 45° WNW 03:55:29 45° WNW visible
8 Apr 9.9 02:27:35 10° ENE 02:28:54 14° ENE 02:28:54 14° ENE visible
8 Apr 7.6 04:01:51 10° N 04:05:35 35° WNW 04:05:35 35° WNW visible
9 Apr 9.5 02:36:51 10° NE 02:39:00 18° ENE 02:39:00 18° ENE visible
9 Apr 8.0 04:11:55 10° NNW 04:15:28 27° WNW 04:15:41 27° WNW visible
10 Apr 9.1 02:46:18 10° NE 02:49:06 24° E 02:49:06 24° E visible
10 Apr 8.3 04:22:04 10° NNW 04:25:15 21° WNW 04:25:47 21° W visible
11 Apr 8.6 02:55:53 10° NNE 02:59:13 32° E 02:59:13 32° E visible
11 Apr 8.6 04:32:21 10° NNW 04:35:01 17° WNW 04:35:53 16° W visible
12 Apr 8.0 03:05:32 10° NNE 03:09:18 43° E 03:09:18 43° E visible
12 Apr 8.9 04:42:52 10° NW 04:44:46 13° WNW 04:45:58 12° W visible
13 Apr 7.4 03:15:16 10° NNE 03:19:23 59° E 03:19:23 59° E visible
